Regional Weather Roundup
Issued by NWS

Home | Current Version | Previous Version | Graphics & Text | Print | Product List | Glossary On
Versions: 1 2 3 4 5 6 7 8 9 10 11 12 13 14 15 16 17 18 19 20 21 22 23 24 25 26 27 28 29 30 31 32 33 34 35 36 37 38 39 40 41 42 43 44 45 46 47 48 49 50
000
ASUS43 KIND 010659
RWRIN

WEATHER ROUNDUP FOR INDIANA
NATIONAL WEATHER SERVICE INDIANAPOLIS IN
200 AM EST SUN MAR 01 2015

NOTE: "FAIR" INDICATES FEW OR NO CLOUDS BELOW 12,000 FEET WITH NO
SIGNIFICANT WEATHER AND/OR OBSTRUCTIONS TO VISIBILITY.

* - STATION DOES NOT REPORT WEATHER SUCH AS PRECIPITATION OR FOG.

+ - STATION NOT QUALITY CONTROLLED BY THE NATIONAL WEATHER SERVICE.
    USE DATA WITH CAUTION...ESPECIALLY DEWPOINT AND RELATIVE
    HUMIDITY OBSERVATIONS.

INZ001>003-010>013-019-020-010800-
NORTHWEST INDIANA

CITY           SKY/WX    TMP DP  RH WIND       PRES   REMARKS
GARY /AIRPORT/ FLURRIES  21  14  74 CALM      30.45F
KNOX *+          N/A     19   9  63 CALM      30.44F
MONTICELLO +   LGT SNOW  19  17  93 CALM      30.43F
VALPARAISO     NOT AVBL

$$

LMZ046-743>745-010800-
SOUTHERN LAKE MICHIGAN

STATION/POSITION TIME  TEMP WIND        PRES
                       AIR  DIR/SP/G
                 (UTC) (F)  (DEG/KT/KT) (MB)
MICHIGAN CITY    0600   17  120/  4/  5   N/A

$$

INZ004-005-014>016-021>024-010800-
NORTH CENTRAL INDIANA

CITY           SKY/WX    TMP DP  RH WIND       PRES   REMARKS
GOSHEN         LGT SNOW  16  11  80 E3        30.44F
PERU/GRISSOM   LGT SNOW  18  16  93 NE3       30.43S FOG
SOUTH BEND     FLURRIES  17  13  84 E5        30.45F WCI  10

$$

INZ006>009-017-018-025>027-010800-
NORTHEAST INDIANA

CITY           SKY/WX    TMP DP  RH WIND       PRES   REMARKS
ANGOLA *+      CLOUDY    14  10  85 SE5       30.43F WCI   6
FORT WAYNE     LGT SNOW  17  14  88 E6        30.44F VSB 1   WCI   9

$$

INZ028-029-035-036-043>045-051>053-010800-
WEST CENTRAL INDIANA

CITY           SKY/WX    TMP DP  RH WIND       PRES   REMARKS
CRAWFORDSVL +  LGT SNOW  20  16  84 CALM      30.41F
GREENCASTLE +  LGT SNOW  23  19  86 SE3       30.41F
LAFAYETTE      SNOW      20  18  92 E6        30.44F VSB 1/2 WCI  12
TERRE HAUTE    LGT SNOW  25  22  88 SE3       30.42F VSB 1

$$

INZ030>032-037>040-046>048-054>057-064-065-010800-
CENTRAL INDIANA

CITY           SKY/WX    TMP DP  RH WIND       PRES   REMARKS
FRANKFORT +    LGT SNOW  21  21 100 CALM      30.43F VSB 1
GREENWOOD *+   CLOUDY    23  19  86 SE3       30.42F
INDIANAPOLIS   LGT SNOW  23  20  88 SE9       30.40F VSB 3/4 WCI  13
-EAGLE CREEK   LGT SNOW  22  21  96 SE5       30.40F VSB 3/4 WCI  16
KOKOMO *+        N/A     18  16  93 E3        30.43S VSB 3/4
MT COMFORT *+  CLOUDY    23 N/A N/A S8        30.41F WCI  14
SHELBYVILLE    LGT SNOW  24  21  88 E3        30.41F FOG
ZIONSVILLE +   LGT SNOW  22  19  86 CALM      30.41F VSB 3/4

$$

INZ033-034-041-042-049-050-058-059-010800-
EAST CENTRAL INDIANA

CITY           SKY/WX    TMP DP  RH WIND       PRES   REMARKS
MUNCIE         SNOW      21  20  96 CALM      30.41F VSB 1/2

$$

INZ060-061-067>069-081>083-085>088-010800-
SOUTHWEST INDIANA

CITY           SKY/WX    TMP DP  RH WIND       PRES   REMARKS
EVANSVILLE     CLOUDY    31  23  72 E5        30.43F WCI  26
HUNTINGBURG *+ CLOUDY    28  21  74 NE8       30.42F WCI  20

$$

INZ062-063-066-070>080-084-089>092-010800-
SOUTH CENTRAL AND SOUTHEAST INDIANA

CITY           SKY/WX    TMP DP  RH WIND       PRES   REMARKS
BLOOMINGTON    LGT SNOW  25  23  92 SE8       30.39F VSB 1   WCI  16
SEYMOUR +      LGT SNOW  27  25  93 SE10      30.44F WCI  17

$$




USA.gov is the U.S. government's official web portal to all federal, state and local government web resources and services.